Weather History for Fryeburg, ME

Change the Weather History Date:

Thursday, July 26, 2012

  Actual Average Record
Temperature  
Mean Temperature 64 °F -  
Max Temperature 68 °F 78 °F 91 °F (2007)
Min Temperature 59 °F 53 °F 43 °F (2002)
Degree Days  
Heating Degree Days 2    
Growing Degree Days 14 (Base 50)    
Moisture  
Dew Point 59 °F    
Average Humidity 83    
Maximum Humidity 97    
Minimum Humidity 65    
Precipitation  
Precipitation 0.04 in - - ()
Sea Level Pressure  
Sea Level Pressure 29.71 in    
Wind  
Wind Speed 0 mph (West)    
Max Wind Speed 4 mph    
Max Gust Speed -    
Visibility 10 miles    
Events Rain    
Averages and records for this station are not official NWS values.
T = Trace of Precipitation, MM = Missing Value Source: NWS Daily Summary

Daily Weather History Graph

Daily Weather History Graph

Search for Another Location

Airport:

Trip Planner

Search our weather history database for the weather conditions in past years. The results will help you decide how hot, cold, wet, or windy it might be!

Date:

Astronomy

Jul. 26, 2012 Rise Set
Actual Time 5:26 AM EDT 8:13 PM EDT
Civil Twilight 4:52 AM EDT 8:47 PM EDT
Nautical Twilight 4:09 AM EDT 9:29 PM EDT
Astronomical Twilight 3:20 AM EDT 10:18 PM EDT
Moon 1:56 PM EDT (7/26) 11:58 PM EDT (7/26)
Length of Visible Light 15h 55m
Length of Day
14h 47m
First Quarter, 53% of the Moon is Illuminated
Jul 26
First Quarter
Aug 1
Full
Aug 9
Last Quarter
Aug 17
New
Aug 24
First Quarter

Hourly Weather History & Observations

Time (EDT) Temp. Dew Point Humidity Pressure Visibility Wind Dir Wind Speed Gust Speed Precip Events Conditions
12:54 AM 61.0 °F 55.0 °F 81% 29.78 in 10.0 mi Calm Calm - N/A   Clear
1:54 AM 59.0 °F 55.0 °F 87% 29.78 in 10.0 mi South 3.5 mph - N/A   Clear
2:54 AM 60.1 °F 55.0 °F 83% 29.77 in 10.0 mi Calm Calm - N/A   Clear
3:54 AM 59.0 °F 55.0 °F 87% 29.75 in 10.0 mi Calm Calm - N/A   Clear
4:54 AM 60.1 °F 55.0 °F 83% 29.75 in 10.0 mi Calm Calm - 0.00 in Rain Light Rain
5:54 AM 59.0 °F 55.9 °F 90% 29.75 in 10.0 mi Calm Calm - 0.00 in   Overcast
6:54 AM 61.0 °F 57.0 °F 87% 29.74 in 10.0 mi Calm Calm - N/A   Overcast
7:54 AM 62.1 °F 57.0 °F 84% 29.74 in 10.0 mi Calm Calm - N/A   Overcast
8:54 AM 64.0 °F 57.0 °F 78% 29.73 in 10.0 mi Calm Calm - N/A   Overcast
9:54 AM 66.9 °F 57.0 °F 70% 29.70 in 10.0 mi Calm Calm - N/A   Overcast
10:54 AM 66.0 °F 57.9 °F 75% 29.71 in 10.0 mi Calm Calm - N/A   Overcast
11:54 AM 64.9 °F 57.9 °F 78% 29.71 in 10.0 mi Calm Calm - 0.00 in   Overcast
12:54 PM 68.0 °F 55.9 °F 65% 29.70 in 10.0 mi Calm Calm - N/A   Overcast
1:54 PM 66.9 °F 59.0 °F 76% 29.69 in 10.0 mi Calm Calm - 0.00 in   Overcast
2:54 PM 66.0 °F 60.1 °F 81% 29.67 in 10.0 mi Calm Calm - 0.00 in   Overcast
3:54 PM 66.9 °F 60.1 °F 79% 29.68 in 10.0 mi Calm Calm - N/A   Overcast
4:54 PM 68.0 °F 60.1 °F 76% 29.67 in 10.0 mi Calm Calm - N/A   Overcast
5:54 PM 68.0 °F 61.0 °F 78% 29.66 in 10.0 mi Calm Calm - N/A   Overcast
6:54 PM 66.9 °F 61.0 °F 81% 29.67 in 10.0 mi Calm Calm - N/A   Overcast
7:54 PM 66.0 °F 61.0 °F 84% 29.67 in 10.0 mi NNW 3.5 mph - N/A   Mostly Cloudy
8:54 PM 64.0 °F 61.0 °F 90% 29.67 in 10.0 mi Calm Calm - N/A   Scattered Clouds
9:54 PM 64.0 °F 62.1 °F 93% 29.68 in 10.0 mi Calm Calm - N/A   Overcast
10:07 PM 64.4 °F 62.6 °F 94% 29.67 in 10.0 mi Calm Calm - N/A   Overcast
10:54 PM 64.0 °F 62.1 °F 93% 29.66 in 10.0 mi Calm Calm - 0.00 in   Overcast
11:54 PM 63.0 °F 62.1 °F 97% 29.65 in 10.0 mi Calm Calm - 0.04 in Rain Light Rain